ソーホー彗星

C/2015 D1 ( SOHO )

English version
Home page
Updated on December 8, 2015

---------------------------------------------------------------------

・ プロフィール

発見日 2015年2月18日
発見光度 9.1等
発見者 Worachate Boonplod (SOHO/LASCO C3 satellite images)

・ 写真集

・ 軌道要素

Epoch 2015 Feb. 27.0 TT = JDT 2457080.5
T 2015 Feb. 19.74906 TT                                 MPCW
q   0.0284670            (2000.0)            P               Q
z  -0.0402341      Peri.  235.22423     +0.34597765     +0.11471115
 +/-0.0040624      Node    95.91836     -0.18731614     +0.98096205
e   1.0011453      Incl.   69.42191     -0.91935419     -0.15669971
From 410 observations 2015 Feb. 18-21.

・ 星図

・ 光度変化

        m1 = 17 + 5 logΔ + 10 log r  [  , 0]  (              〜2015年 2月19日)
        m1 = 11 + 5 logΔ +  7 log r  [ 0,30]  (2015年 2月19日〜2015年 3月21日)
        m1 = 11 + 5 logΔ + 10 log r  [30,  ]  (2015年 3月21日〜              )

---------------------------------------------------------------------

軌道要素はM.P.E.C. 2015-K01に掲載されたものです。
星図はステラナビゲータ Ver.8 (アストロアーツ) で作成したものです。
光度グラフはComet for Windowsで作成したものです。

---------------------------------------------------------------------

Copyright(C) Seiichi Yoshida (comet@aerith.net). All rights reserved.